Regional Weather Roundup
Issued by NWS

Home | Current Version | Previous Version | Graphics & Text | Print | Product List | Glossary On
Versions: 1 2 3 4 5 6 7 8 9 10 11 12 13 14 15 16 17 18 19 20 21 22 23 24 25 26 27 28 29 30 31 32 33 34 35 36 37 38 39 40 41 42 43 44 45 46 47 48 49 50
000
ASUS45 KTFX 282210
RWRMT
MONTANA REGIONAL WEATHER ROUNDUP
NATIONAL WEATHER SERVICE GREAT FALLS MT
400 PM MDT TUE MAR 28 2017

NOTE: "FAIR" INDICATES FEW OR NO CLOUDS BELOW 12000 FEET WITH NO
SIGNIFICANT WEATHER AND/OR OBSTRUCTIONS TO VISIBILITY.

MTZ001>007-043-282300-
WEST OF THE DIVIDE

CITY           SKY/WX    TMP DP  RH WIND       PRES   REMARKS
KALISPELL      CLOUDY    45  32  60 SE14G20   30.15F
MISSOULA       CLOUDY    48  27  44 N5        30.19F
BUTTE          SUNNY     46  18  32 CALM      30.12F
MULLAN PASS    LGT SNOW  29  28  96 SW8       30.14F FOG     WCI  21
ANACONDA         N/A     48  16  27 W15G22    30.11F
DEER LODGE       N/A     48  19  32 NE3       30.15F
EUREKA           N/A     46  30  53 S9        30.14F
HAMILTON         N/A     48  21  34 W12       30.20S
PLAINS           N/A     50  30  46 W2        30.18
RONAN            N/A     47  27  46 S6        30.21F
$$

MTZ008-052>055-282300-
SOUTHWEST MONTANA

CITY           SKY/WX    TMP DP  RH WIND       PRES   REMARKS
BOZEMAN        SUNNY     51  22  31 VRB3      30.12F
DILLON         SUNNY     50  18  28 S9        30.10F
W YELLOWSTONE  SUNNY     39  14  35 SW6G16    30.13F
ENNIS          SUNNY     46  21  36 VRB6G12   30.16S
THREE FORKS      N/A     53  53 100 S7        30.10F
TWIN BRIDGES     N/A     50  17  27 CALM      30.10S
$$

MTZ009-010-012-014-046-048-049-054-282300-
EAST SLOPES AND CENTRAL MONTANA

CITY           SKY/WX    TMP DP  RH WIND       PRES   REMARKS
CUT BANK       MOSUNNY   49  24  37 W29G38    30.01S
GREAT FALLS    MOSUNNY   51  20  29 SW13G25   30.05F
MALMSTROM AFB  CLOUDY    51  20  29 W18G28    30.06F
HELENA         MOSUNNY   53  21  28 W13       30.09F
AUGUSTA          N/A     47  19  33 W28       30.03F
BOWMANS CRNR     N/A     48  20  32 W22       30.04F
CHOTEAU          N/A     52  21  30 W8G15     30.04F
CONRAD           N/A     54  29  38 SW8       30.04F
FAIRFIELD        N/A     51  19  28 W12G23    30.03F
POWER            N/A     51  19  27 SW17G23   30.03F
RAYNESFORD     PTSUNNY   49  20  31 W18G28    30.06F
$$

MTZ011-013-016-021-045-047-050-051-282300-
NORTH CENTRAL MONTANA

CITY           SKY/WX    TMP DP  RH WIND       PRES   REMARKS
HAVRE          CLOUDY    56  23  27 SW9G24    30.01F
LEWISTOWN      MOSUNNY   51  21  30 NW5G17    30.06F
N BAR RANCH    PTSUNNY   50  23  34 N12       30.07S
CHINOOK          N/A     57  21  24 SW14G20   30.01F
DENTON           N/A     52  20  28 W15G29    30.03F
FORT BENTON      N/A     54  21  28 MISG      30.06S
GEYSER         PTSUNNY   49  20  32 W16       30.06F
GRASS RANGE      N/A     52  20  28 W14       30.02F
JUDITH GAP       N/A     48  19  32 W16G22    30.06F
STANFORD         N/A     46  20  35 W5        30.06F
WINIFRED         N/A     51  20  29 W16G24    30.05F
$$

MTZ017>020-022>027-061-062-282300-
NORTHEAST MONTANA

CITY           SKY/WX    TMP DP  RH WIND       PRES   REMARKS
GLASGOW        MOSUNNY   60  26  27 W9G20     30.03F
JORDAN           N/A     58  26  29 CALM      30.05S
SIDNEY         CLOUDY    47  39  74 NW13      30.09R
WOLF POINT     MOSUNNY   51  38  60 VRB3      30.08S
MALTA          PTSUNNY   57  25  28 SW7       30.02S
PLENTYWOOD       N/A     45  37  76 SE3       30.07F
POPLAR           N/A     48  39  71 S8        30.09S
SCOBEY           N/A     53  36  52 SE9       30.02F
$$

MTZ028>42-056>058-282300-
SOUTHCENTRAL AND SOUTHEAST MONTANA

CITY           SKY/WX    TMP DP  RH WIND       PRES   REMARKS
BAKER          PTSUNNY   56  37  49 W14       30.04S
BILLINGS       MOSUNNY   55  23  28 NW8       30.07F
LIVINGSTON     CLOUDY    52  22  30 W17G23    30.08F
MILES CITY     CLOUDY    52  37  56 NW9       30.08S
BIG TIMBER     SUNNY     50  19  29 W24G31    30.10S
EKALAKA          N/A     53  36  52 NW9       30.02S
FORSYTH          N/A     54  37  54 SW5       30.08S
HARLOWTON        N/A     52  19  28 W25G33    30.07F
LAUREL           N/A     54  24  31 SW1       30.06F
ROUNDUP          N/A     56  16  21 SW6       29.97F
$$

REGIONAL REPORTS...DAKOTAS

CITY           SKY/WX    TMP DP  RH WIND       PRES   REMARKS
WILLISTON      PTSUNNY   56  40  55 W9        30.05S
MINOT          CLOUDY    52  42  69 E16       30.08F
DICKINSON      CLOUDY    60  27  28 S10G18    30.01F
BEACH          PTSUNNY   52  41  66 NW20G26   30.08R
TIOGA            N/A     54  43  66 SE6G13    30.06F
WATFORD CITY   DRIZZLE   55  41  58 W12       30.03S
BISMARCK       MOSUNNY   63  36  36 SE12      30.08S
GRAND FORKS    CLOUDY    54  43  66 NE9       30.17F
FARGO          MOSUNNY   58  41  53 NE8       30.14F
BUFFALO SD       N/A     50  42  74 NW8       29.98S
RAPID CITY     CLOUDY    45  41  86 CALM      30.05R
$$

REGIONAL REPORTS...WYOMING/IDAHO/WASHINGTON

CITY           SKY/WX    TMP DP  RH WIND       PRES   REMARKS
GILLETTE       CLOUDY    49  38  65 NW18      30.04F
SHERIDAN       CLOUDY    46  38  73 N8        30.11S
BUFFALO WY     CLOUDY    44  35  70 N21       30.09R
CODY           MOSUNNY   49  29  46 VRB5      30.08F
YELLOWSTONE LA   N/A     36  17  46 CALM      30.14R
IDAHO FALLS    PTSUNNY   48  28  46 SW9       30.17S
SALMON         SUNNY     52  21  30 CALM      30.13F
BOISE          MOSUNNY   53  29  39 N13       30.26S
SPOKANE        LGT RAIN  45  36  70 S14G22    30.20S
$$

REGIONAL REPORTS...ALBERTA

CITY           SKY/WX    TMP DP  RH WIND       PRES   REMARKS
EDMONTON       PTSUNNY   46  41  81 NE7       29.83F
CALGARY        PTSUNNY   50  19  29 SE12      29.84F
LETHBRIDGE     CLOUDY    52  23  32 W24G30    29.94F
MEDICINE HAT   PTSUNNY   59  23  25 SW24G32   29.91F
WATERTON GATE    N/A     45  25  45 SW24G39     N/A
CARDSTON         N/A     46  21  36 SW13G25     N/A
MILK RIVER       N/A     54  21  28 SW16G23     N/A
$$

REGIONAL REPORTS...SASKATCHEWAN

CITY           SKY/WX    TMP DP  RH WIND       PRES   REMARKS
SWIFT CURRENT  MOSUNNY   55  28  35 W14       29.94S
REGINA         CLOUDY    39  36  87 SE17G23   30.06F WCI  30
SASKATOON      CLOUDY    48  37  66 SE14      29.99F
VAL MARIE        N/A     57  21  24 W15G22      N/A
ROCKGLEN         N/A     55  25  30 W13G20      N/A
ASSINIBOIA       N/A     43  36  75 SE8         N/A
$$



USA.gov is the U.S. government's official web portal to all federal, state and local government web resources and services.